This is the latest recevied weather packets stored in our database for station/object N5ZP. If no packets are shown the sender has not sent any weather packets the latest 10 day(s).
| Time | Temp. | Humidity | Pressure | Rain* | Wind** | Luminosity | Snow |
|---|---|---|---|---|---|---|---|
| 1777853277 | 26.11° C | 35% | 1012.2 hPa | 0 mm | - | 61 W/m² | - |
| 1777852974 | 26.11° C | 35% | 1012.3 hPa | 0 mm | - | 71 W/m² | - |
| 1777852672 | 26.11° C | 35% | 1012.3 hPa | 0 mm | - | 85 W/m² | - |
| 1777852369 | 26.11° C | 35% | 1012.4 hPa | 0 mm | - | 95 W/m² | - |
| 1777852067 | 26.11° C | 35% | 1012.4 hPa | 0 mm | - | 95 W/m² | - |
| 1777851765 | 27.22° C | 35% | 1012.4 hPa | 0 mm | - | 105 W/m² | - |
| 1777851461 | 26.67° C | 35% | 1012.2 hPa | 0 mm | - | 123 W/m² | - |
| 1777851157 | 26.67° C | 34% | 1012.1 hPa | 0 mm | - | 124 W/m² | - |
| 1777850854 | 27.22° C | 33% | 1012.4 hPa | 0 mm | - | 150 W/m² | - |
| 1777850552 | 27.22° C | 33% | 1012.4 hPa | 0 mm | - | 150 W/m² | - |
| 1777850250 | 27.22° C | 34% | 1012.5 hPa | 0 mm | - | 175 W/m² | - |
| 1777849946 | 27.22° C | 34% | 1012.5 hPa | 0 mm | - | 175 W/m² | - |
| 1777849642 | 27.78° C | 34% | 1012.5 hPa | 0 mm | - | 191 W/m² | - |
| 1777849340 | 27.78° C | 32% | 1012.4 hPa | 0 mm | - | 204 W/m² | - |
| 1777849037 | 27.78° C | 32% | 1012.7 hPa | 0 mm | - | 216 W/m² | - |
| 1777848737 | 27.78° C | 31% | 1012.6 hPa | 0 mm | - | 236 W/m² | - |
| 1777848435 | 28.33° C | 32% | 1012.8 hPa | 0 mm | - | 186 W/m² | - |
| 1777847836 | 28.33° C | 32% | 1012.8 hPa | 0 mm | - | 300 W/m² | - |
| 1777847533 | 28.33° C | 32% | 1012.8 hPa | 0 mm | - | 300 W/m² | - |
| 1777847229 | 28.33° C | 33% | 1012.9 hPa | 0 mm | - | 279 W/m² | - |
| 1777846927 | 28.33° C | 32% | 1012.9 hPa | 0 mm | - | 281 W/m² | - |
| 1777846626 | 27.78° C | 31% | 1013 hPa | 0 mm | - | 312 W/m² | - |
| 1777846323 | 28.33° C | 33% | 1013 hPa | 0 mm | - | 315 W/m² | - |
| 1777846019 | 28.33° C | 33% | 1012.9 hPa | 0 mm | - | 256 W/m² | - |
| 1777845716 | 27.78° C | 33% | 1013 hPa | 0 mm | - | 340 W/m² | - |
* Rain latest hour (hover to see other rain measurements)
** Current wind speed in m/s (hover to see current wind gust speed)